Date_and_time,latitude,longitude,wind_speed,RelWindDirFrom,WindDirFrom,air_pressure,air_temperature,relative_humidity,Temp,platform_speed_wrt_ground,air_pressure_at_mean_sea_level,platform_orientation
2018-10-13 00:00,50.6304183333333,-96.9807333333333,12.5,15.1,178,977.27,4.3,58,4.51,0.0,1004.26,231.8
2018-10-13 00:00,50.6304183333333,-96.9807333333333,11.4,11.7,174,977.34,4.2,60,4.49,0.0,1004.36,143.4
2018-10-13 00:10,50.6304266666667,-96.9807366666667,12.0,15.3,178,977.26,4.1,59,4.46,0.0,1004.28,143.4
2018-10-13 00:20,50.6304283333333,-96.9807383333333,12.6,15.2,174,977.10,4.0,59,4.47,0.0,1004.15,143.4
2018-10-13 00:30,50.63043,-96.98074,13.5,16.7,172,976.98,3.9,60,4.47,0.0,1004.10,143.4
2018-10-13 00:40,50.63043,-96.9807416666667,13.8,16.3,176,976.93,3.7,59,4.47,0.0,1004.03,143.4
2018-10-13 00:50,50.63043,-96.980755,12.7,15.1,174,976.84,3.5,61,4.48,0.0,1003.94,143.4
2018-10-13 01:00,50.6304316666667,-96.9807466666667,13.9,16.6,172,976.69,3.3,63,4.44,0.0,1003.80,49.4
2018-10-13 01:10,50.6304283333333,-96.9807516666667,14.5,18.2,174,976.59,3.2,62,4.42,0.0,1003.72,49.4
2018-10-13 01:20,50.6304266666667,-96.9807516666667,13.8,16.2,178,976.61,3.0,61,4.41,0.0,1003.76,49.4
2018-10-13 01:30,50.6304266666667,-96.9807533333333,14.4,18.8,179,976.45,2.9,61,4.42,0.0,1003.63,49.4
2018-10-13 01:40,50.6304266666667,-96.980755,14.5,17.7,177,976.32,2.7,62,4.41,0.0,1003.51,49.4
2018-10-13 01:50,50.6304233333333,-96.9807333333333,14.8,17.4,177,976.21,2.6,63,4.41,0.0,1003.40,49.4
2018-10-13 02:00,50.630425,-96.9807433333333,14.1,16.7,176,976.04,2.5,65,4.40,0.0,1003.24,360.0
2018-10-13 02:10,50.6304266666667,-96.9807433333333,14.3,17.3,176,975.90,2.5,66,4.37,0.0,1003.10,360.0
2018-10-13 02:20,50.6304283333333,-96.9807466666667,13.9,16.1,174,975.76,2.5,68,4.37,0.0,1002.96,360.0
2018-10-13 02:30,50.63043,-96.9807483333333,13.6,17.1,177,975.68,2.5,68,4.37,0.0,1002.89,360.0
2018-10-13 02:40,50.6304316666667,-96.9807516666667,13.6,16.6,179,975.58,2.4,69,4.36,0.0,1002.80,360.0
2018-10-13 02:50,50.6304316666667,-96.9807533333333,13.6,17.1,175,975.49,2.3,69,4.38,0.0,1002.71,360.0
2018-10-13 03:00,50.63043,-96.9807583333333,14.0,16.6,172,975.37,2.4,71,4.38,0.0,1002.60,310.6
2018-10-13 03:10,50.6304266666667,-96.9807533333333,15.3,17.6,173,975.21,2.4,71,4.36,0.0,1002.44,310.6
2018-10-13 03:20,50.6304283333333,-96.9807583333333,14.2,17.9,173,975.12,2.3,72,4.34,0.0,1002.36,310.6
2018-10-13 03:30,50.63043,-96.980755,13.5,16.5,172,974.99,2.5,73,4.35,0.0,1002.23,310.6
2018-10-13 03:40,50.6304283333333,-96.980755,14.8,18.8,177,974.84,2.4,72,4.35,0.0,1002.08,310.6
2018-10-13 03:50,50.6304266666667,-96.98075,13.7,17.8,175,974.91,2.3,73,4.34,0.0,1002.16,310.6
2018-10-13 04:00,50.6304333333333,-96.980755,13.3,15.8,176,974.92,2.3,73,4.31,0.0,1002.18,270.0
2018-10-13 04:10,50.6304316666667,-96.9807516666667,11.8,15.1,177,974.84,2.3,73,4.31,0.0,1002.10,270.0
2018-10-13 04:20,50.63043,-96.9807533333333,10.8,12.7,178,974.69,2.2,73,4.30,0.0,1001.94,270.0
2018-10-13 04:30,50.6304283333333,-96.98075,9.7,12.2,178,974.61,2.3,73,4.30,0.0,1001.86,270.0
2018-10-13 04:40,50.6304166666667,-96.9807433333333,9.2,11.8,183,974.51,2.5,73,4.31,0.0,1001.75,270.0
2018-10-13 04:50,50.6304166666667,-96.98074,9.7,12.4,184,974.36,2.7,73,4.33,0.0,1001.59,270.0
2018-10-13 05:00,50.63044,-96.98076,10.2,13.5,184,974.29,2.8,73,4.33,0.0,1001.51,327.5
2018-10-13 05:10,50.6304316666667,-96.9807583333333,9.9,13.6,186,974.22,2.9,74,4.32,0.0,1001.43,327.5
2018-10-13 05:20,50.63043,-96.9807583333333,10.7,14.6,184,974.09,3.0,75,4.31,0.0,1001.29,327.5
2018-10-13 05:30,50.63043,-96.9807583333333,10.6,13.4,182,974.06,3.0,75,4.31,0.0,1001.27,327.5
2018-10-13 05:40,50.6304316666667,-96.9807583333333,9.4,12.0,180,974.03,3.0,76,4.31,0.0,1001.24,327.5
2018-10-13 05:50,50.6304316666667,-96.980755,9.7,12.9,181,973.94,3.1,76,4.29,0.0,1001.14,327.5
2018-10-13 06:00,50.6304316666667,-96.980755,9.3,12.6,181,973.87,3.1,77,4.27,0.0,1001.07,360.0
2018-10-13 06:10,50.6304383333333,-96.9807383333333,9.9,12.6,175,973.79,3.2,77,4.27,0.0,1000.98,360.0
2018-10-13 06:20,50.6304283333333,-96.9807483333333,10.5,12.3,176,973.70,3.3,77,4.27,0.0,1000.88,360.0
2018-10-13 06:30,50.63043,-96.9807483333333,9.2,11.3,173,973.65,3.3,79,4.28,0.0,1000.82,360.0
2018-10-13 06:40,50.6304283333333,-96.9807483333333,10.2,13.1,175,973.57,3.3,81,4.27,0.0,1000.73,360.0
2018-10-13 06:50,50.63043,-96.98075,11.4,14.5,178,973.51,3.1,84,4.28,0.0,1000.66,360.0
2018-10-13 07:00,50.63043,-96.98075,9.8,12.3,181,973.48,2.9,88,4.28,0.0,1000.64,167.4
2018-10-13 07:10,50.6304233333333,-96.9807466666667,8.4,10.6,181,973.45,2.8,91,4.28,0.0,1000.62,167.4
2018-10-13 07:20,50.6304316666667,-96.9807533333333,8.2,9.9,178,973.39,3.0,91,4.28,0.0,1000.55,167.4
2018-10-13 07:30,50.630435,-96.9807533333333,7.1,10.9,178,973.32,3.0,91,4.27,0.0,1000.47,167.4
2018-10-13 07:40,50.6304333333333,-96.98075,5.8,7.2,181,973.18,2.9,93,4.27,0.0,1000.33,167.4
2018-10-13 07:50,50.6304316666667,-96.9807516666667,6.6,11.0,176,973.09,2.9,96,4.28,0.0,1000.23,167.4
2018-10-13 08:00,50.6304333333333,-96.98075,11.1,14.2,168,972.90,3.2,99,4.29,0.0,1000.02,165.5
2018-10-13 08:10,50.6304316666667,-96.98075,10.6,14.4,163,972.77,3.2,99,4.31,0.0,999.88,165.5
2018-10-13 08:20,50.6304316666667,-96.9807516666667,12.4,15.3,155,972.66,3.1,99,4.30,0.0,999.78,165.5
2018-10-13 08:30,50.6304316666667,-96.9807516666667,12.2,15.2,159,972.57,3.1,99,4.27,0.0,999.68,165.5
2018-10-13 08:40,50.6304316666667,-96.9807516666667,11.6,15.2,163,972.50,3.0,99,4.26,0.0,999.62,165.5
2018-10-13 08:50,50.63042,-96.9807466666667,12.3,16.0,158,972.36,3.0,99,4.27,0.0,999.48,165.5
2018-10-13 09:00,50.63042,-96.9807466666667,11.5,14.6,163,972.33,3.0,99,4.26,0.0,999.46,143.4
2018-10-13 09:10,50.630425,-96.9807516666667,12.2,15.9,157,972.18,2.8,100,4.25,0.0,999.31,143.4
2018-10-13 09:20,50.6304233333333,-96.9807466666667,11.2,14.7,157,972.07,2.8,100,4.24,0.0,999.20,143.4
2018-10-13 09:30,50.630425,-96.9807483333333,10.7,13.3,158,971.95,2.9,100,4.25,0.0,999.07,143.4
2018-10-13 09:40,50.6304283333333,-96.9807466666667,9.7,12.0,159,971.85,3.0,100,4.26,0.0,998.96,143.4
2018-10-13 09:50,50.6304283333333,-96.980745,10.1,12.4,169,971.86,3.0,100,4.26,0.0,998.95,143.4
2018-10-13 10:00,50.63043,-96.9807466666667,9.0,11.9,165,971.83,3.0,100,4.26,0.0,998.93,90.0
2018-10-13 10:10,50.63043,-96.9807466666667,8.7,11.5,165,971.82,3.0,100,4.25,0.0,998.92,90.0
2018-10-13 10:20,50.63043,-96.9807466666667,8.6,10.9,169,971.88,3.0,100,4.25,0.0,998.99,90.0
2018-10-13 10:30,50.6304283333333,-96.9807533333333,9.4,11.6,170,971.88,3.0,100,4.26,0.0,998.99,90.0
2018-10-13 10:40,50.6304316666667,-96.980755,8.1,10.0,170,971.94,3.0,100,4.26,0.0,999.05,90.0
2018-10-13 10:50,50.6304316666667,-96.9807533333333,7.5,9.7,165,971.94,3.0,100,4.25,0.0,999.06,90.0
2018-10-13 11:00,50.6304333333333,-96.9807516666667,8.4,11.3,164,971.92,2.9,100,4.25,0.0,999.05,0.0
2018-10-13 11:10,50.6304333333333,-96.9807533333333,8.2,10.5,174,971.92,2.9,100,4.24,0.0,999.05,0.0
2018-10-13 11:20,50.6304283333333,-96.98076,6.8,9.2,175,971.94,2.8,100,4.23,0.0,999.06,0.0
2018-10-13 11:30,50.6304266666667,-96.98076,5.4,7.0,174,971.91,2.8,100,4.25,0.0,999.03,0.0
2018-10-13 11:40,50.6304283333333,-96.9807633333333,4.6,5.6,175,971.90,2.7,100,4.28,0.0,999.03,0.0
2018-10-13 11:50,50.6304416666667,-96.9807616666667,4.8,5.9,182,971.97,2.7,100,4.28,0.0,999.10,0.0
2018-10-13 12:00,50.63043,-96.9807533333333,3.6,5.0,193,972.02,2.7,100,4.30,0.0,999.15,311.7
2018-10-13 12:10,50.6304266666667,-96.980755,2.2,3.3,206,971.98,2.7,100,4.31,0.0,999.11,311.7
2018-10-13 12:20,50.6304266666667,-96.98075,1.8,3.0,220,972.02,2.7,100,4.32,0.0,999.15,311.7
2018-10-13 12:30,50.6304266666667,-96.9807516666667,1.0,1.8,261,972.01,2.7,100,4.34,0.0,999.14,311.7
2018-10-13 12:40,50.6304283333333,-96.98075,2.0,3.2,262,972.10,2.7,100,4.36,0.0,999.23,311.7
2018-10-13 12:50,50.6304333333333,-96.980755,1.9,3.4,273,972.14,2.7,100,4.36,0.0,999.28,311.7
2018-10-13 13:00,50.6304166666667,-96.980745,2.3,3.5,301,972.15,2.8,100,4.34,0.0,999.29,360.0
2018-10-13 13:10,50.6304233333333,-96.980755,2.4,3.8,298,972.21,2.7,100,4.34,0.0,999.36,360.0
2018-10-13 13:20,50.6304266666667,-96.98075,2.7,4.6,309,972.25,2.7,100,4.32,0.0,999.40,360.0
2018-10-13 13:30,50.6304266666667,-96.9807483333333,3.3,5.7,293,972.37,2.7,100,4.32,0.0,999.52,360.0
2018-10-13 13:40,50.6304266666667,-96.9807483333333,6.2,10.1,305,972.33,2.7,100,4.33,0.0,999.49,360.0
2018-10-13 13:50,50.6304233333333,-96.98075,7.9,14.0,303,972.48,2.8,100,4.33,0.0,999.63,360.0
2018-10-13 14:00,50.6304266666667,-96.9807483333333,13.6,22.8,311,972.46,2.4,100,4.34,0.0,999.64,360.0
2018-10-13 14:10,50.6304283333333,-96.9807516666667,13.9,21.8,316,972.75,1.7,99,4.34,0.0,999.97,360.0
2018-10-13 14:20,50.63043,-96.9807533333333,13.7,23.5,317,972.89,1.4,99,4.31,0.0,1000.13,360.0
2018-10-13 14:30,50.6304283333333,-96.980755,14.6,24.4,318,973.02,1.0,99,4.28,0.0,1000.28,360.0
2018-10-13 14:40,50.6304283333333,-96.980755,15.5,25.0,311,973.30,0.7,99,4.28,0.0,1000.58,360.0
2018-10-13 14:50,50.6304283333333,-96.980755,13.9,22.0,313,973.67,0.5,99,4.28,0.0,1000.97,360.0
2018-10-13 15:00,50.6304283333333,-96.9807533333333,11.6,19.4,308,974.17,0.3,100,4.28,0.0,1001.50,0.0
2018-10-13 15:10,50.6304283333333,-96.9807533333333,13.8,21.6,307,974.38,0.1,100,4.26,0.0,1001.72,0.0
2018-10-13 15:20,50.6304283333333,-96.9807533333333,16.0,26.2,318,974.44,0.0,99,4.25,0.0,1001.79,0.0
2018-10-13 15:30,50.6304283333333,-96.9807533333333,13.6,21.9,305,974.75,-0.1,99,4.30,0.0,1002.11,0.0
2018-10-13 15:40,50.6304116666667,-96.9807433333333,16.1,24.4,304,974.95,-0.5,99,4.31,0.0,1002.33,0.0
2018-10-13 15:50,50.630425,-96.9807433333333,16.8,29.2,310,975.08,-0.6,98,4.27,0.0,1002.49,0.0
2018-10-13 16:00,50.63042,-96.9807416666667,16.3,27.4,308,975.35,-0.7,94,4.24,0.0,1002.80,360.0
2018-10-13 16:10,50.6304216666667,-96.980745,18.4,28.0,308,975.46,-0.9,92,4.24,0.0,1002.95,360.0
2018-10-13 16:20,50.6304183333333,-96.980745,16.7,26.1,312,975.73,-1.1,93,4.23,0.0,1003.26,360.0
2018-10-13 16:30,50.6304183333333,-96.980765,18.1,30.5,313,975.80,-1.0,88,4.24,0.0,1003.34,360.0
2018-10-13 16:40,50.6304033333333,-96.9807533333333,18.0,29.6,314,975.94,-0.9,86,4.27,0.0,1003.49,360.0
2018-10-13 16:50,50.630415,-96.98075,19.3,31.0,318,975.99,-1.0,83,4.29,0.0,1003.55,360.0
2018-10-13 17:00,50.6304216666667,-96.9807416666667,14.0,21.8,306,976.76,-0.9,87,4.25,0.0,1004.35,131.7
2018-10-13 17:10,50.63044,-96.98074,12.2,19.4,306,977.15,-0.9,92,4.21,0.0,1004.76,131.7
2018-10-13 17:20,50.6304383333333,-96.9807433333333,13.5,24.5,306,977.30,-0.7,86,4.23,0.0,1004.90,131.7
2018-10-13 17:30,50.6304133333333,-96.980765,13.1,21.1,308,977.48,-0.6,84,4.24,0.0,1005.11,131.7
2018-10-13 17:40,50.63043,-96.9807583333333,13.3,24.2,313,977.59,-0.5,81,4.20,0.0,1005.22,131.7
2018-10-13 17:50,50.6304266666667,-96.980755,14.9,24.3,309,977.65,-0.4,78,4.18,0.0,1005.29,131.7
2018-10-13 18:00,50.6304266666667,-96.9807566666667,15.4,23.9,308,977.87,-0.4,76,4.17,0.0,1005.52,270.0
2018-10-13 18:10,50.6304266666667,-96.980755,11.5,21.3,308,978.19,-0.1,74,4.16,0.0,1005.84,270.0
2018-10-13 18:20,50.6304433333333,-96.9807833333333,11.9,20.1,308,978.25,0.1,73,4.16,0.0,1005.89,270.0
2018-10-13 18:30,50.6304316666667,-96.9807533333333,14.8,21.0,308,978.16,0.2,69,4.16,0.0,1005.79,270.0
2018-10-13 18:40,50.630435,-96.9807466666667,14.5,22.8,305,978.26,0.3,67,4.17,0.0,1005.89,270.0
2018-10-13 18:50,50.6304316666667,-96.9807483333333,14.2,22.1,309,978.36,0.5,65,4.20,0.0,1005.98,270.0
2018-10-13 19:00,50.6304316666667,-96.98075,14.3,21.1,304,978.43,0.6,65,4.21,0.0,1006.04,345.5
2018-10-13 19:10,50.63043,-96.98075,13.1,19.5,310,978.57,0.7,65,4.20,0.0,1006.17,345.5
2018-10-13 19:20,50.6304266666667,-96.9807516666667,11.8,19.2,309,978.75,0.6,66,4.22,0.0,1006.35,345.5
2018-10-13 19:30,50.630425,-96.9807516666667,11.7,18.2,304,978.85,0.7,64,4.23,0.0,1006.45,345.5
2018-10-13 19:40,50.6304216666667,-96.9807816666667,12.6,21.5,296,978.94,1.0,62,4.21,0.0,1006.52,345.5
2018-10-13 19:50,50.630415,-96.9807483333333,11.4,18.7,308,979.08,1.2,62,4.22,0.0,1006.65,345.5
2018-10-13 20:00,50.6304116666667,-96.9807466666667,12.5,21.2,307,979.09,1.4,61,4.21,0.0,1006.64,142.0
2018-10-13 20:10,50.63041,-96.9807416666667,12.7,22.2,311,979.20,1.5,60,4.23,0.0,1006.74,142.0
2018-10-13 20:20,50.63041,-96.9807416666667,13.5,20.9,305,979.30,1.6,59,4.24,0.0,1006.83,142.0
2018-10-13 20:30,50.6304016666667,-96.980735,11.0,18.7,302,979.64,1.7,59,4.23,0.0,1007.16,142.0
2018-10-13 20:40,50.63041,-96.9807466666667,11.2,17.7,294,979.83,1.9,58,4.23,0.0,1007.34,142.0
2018-10-13 20:50,50.6304133333333,-96.980745,12.8,21.3,297,979.86,2.2,56,4.26,0.0,1007.36,142.0
2018-10-13 21:00,50.630415,-96.980745,13.0,21.3,291,979.92,2.9,53,4.26,0.0,1007.38,143.4
2018-10-13 21:10,50.6304166666667,-96.9807466666667,13.2,24.3,299,979.96,2.8,54,4.26,0.0,1007.42,143.4
2018-10-13 21:20,50.630425,-96.9807683333333,13.2,20.9,303,980.06,2.5,54,4.25,0.0,1007.54,143.4
2018-10-13 21:30,50.6304216666667,-96.9807566666667,14.9,22.4,304,980.04,2.4,54,4.28,0.0,1007.51,143.4
2018-10-13 21:40,50.6304233333333,-96.980755,11.1,17.8,306,980.49,2.3,56,4.30,0.0,1007.97,143.4
2018-10-13 21:50,50.6304233333333,-96.98075,12.5,21.3,284,980.72,2.1,58,4.27,0.0,1008.20,143.4
2018-10-13 22:00,50.6304616666667,-96.9807483333333,10.7,18.0,286,980.97,2.0,60,4.24,0.0,1008.46,360.0
2018-10-13 22:10,50.6304383333333,-96.9807516666667,11.0,17.1,285,981.13,1.9,60,4.26,0.0,1008.62,360.0
2018-10-13 22:20,50.6304283333333,-96.98075,9.6,14.7,282,981.38,1.9,60,4.26,0.0,1008.88,360.0
2018-10-13 22:30,50.6304216666667,-96.9807466666667,9.9,16.5,288,981.40,2.0,60,4.24,0.0,1008.88,360.0
2018-10-13 22:40,50.6304233333333,-96.980745,10.9,17.7,297,981.43,1.9,59,4.25,0.0,1008.90,360.0
2018-10-13 22:50,50.6304233333333,-96.9807466666667,8.6,15.7,290,981.72,1.9,60,4.26,0.0,1009.16,360.0
2018-10-13 23:00,50.630425,-96.9807483333333,9.6,16.0,294,981.74,1.8,60,4.24,0.0,1009.20,345.5
2018-10-13 23:10,50.630425,-96.9807466666667,7.5,12.0,286,981.97,1.8,61,4.23,0.0,1009.45,345.5
2018-10-13 23:20,50.630425,-96.980745,7.6,13.7,287,982.12,1.7,62,4.23,0.0,1009.62,345.5
2018-10-13 23:30,50.630405,-96.9807583333333,8.7,14.1,289,982.25,1.6,62,4.23,0.0,1009.76,345.5
